Location: ??
(31.9467°N, 34.8903°E)
Time: 18:49:07
(UTC+00:00)

ERS-2 - Pass Details

Date: 29 October 2020
Orbit: 493 x 497 km, 98.6° (Epoch: 30 November)

Event Time Altitude Azimuth Distance (km) Brightness Sun altitude
Rises 15:40:27 0° 359° (N) 2,578 5.7 -10.6°
Reaches altitude 10° 15:42:43 10° 347° (NNW) 1,692 4.9 -11.1°
Maximum altitude 15:45:49 27° 288° (WNW) 977 4.4 -11.7°
Drops below altitude 10° 15:48:55 10° 229° (SW) 1,685 5.7 -12.4°
Sets 15:51:11 0° 217° (SW) 2,564 6.5 -12.9°
